Home > Weather > Homburg (Saar) > Past weeks

Flag for Germany Past Weather in Homburg (Saar), Saarland, Germany — Yesterday and Last 2 Weeks

Now
64 °F

Clear.


Feels Like: 64 °F
Forecast: 60 / 74 °F
Wind: 8 mph from West

Location: Saarbruecken / Ensheim

Current Time: Jul 29, 2016 at 11:48:22 PM

Latest Report: Jul 29, 2016 at 11:20 PM


Visibility: 10 mi

Pressure: 29.98 "Hg

Humidity: 83%

Dew Point: 59 °F

Location of Homburg (Saar)Location

Past Weather in Homburg (Saar) — Graph

°F

Homburg (Saar) Temperature Yesterday

Maximum temperature yesterday: 73 °F (at 3:50 PM)
Minimum temperature yesterday: 59 °F (at 3:50 AM)
Average temperature yesterday: 65 °F

High & Low Weather Summary for the Past Weeks

 TemperatureHumidityPressure
High90 °F (Jul 20, 2:50 PM)100% (Jul 15, 12:50 AM)30.33 "Hg (Jul 15, 12:50 AM)
Low46 °F (Jul 15, 4:50 AM)31% (Jul 20, 5:50 PM)29.95 "Hg (Jul 20, 4:50 PM)
Average68 °F75%30.11 "Hg
* Reported Jul 14 10:20 PM — Jul 29 10:20 PM, Homburg (Saar), Weather by CustomWeather, © 2016

Note: Actual official high and low records may vary slightly from our data, if they occured in-between our weather recording intervals... More about our weather records

Advertising

Homburg (Saar) Weather History for the Previous 24 Hours

Scroll right to see more
 ConditionsComfort  
Time TempWeatherWind HumidityBarometerVisibility
10:20 PM
Fri, Jul 29
66 °FClear.7 mph78%29.98 "Hg10 mi
9:50 PM66 °FPassing clouds.6 mph78%29.98 "HgN/A
9:20 PM68 °FPassing clouds.8 mph73%29.98 "HgN/A
8:50 PM68 °FPassing clouds.8 mph73%29.95 "HgN/A
8:20 PM70 °FPassing clouds.10 mph69%29.95 "HgN/A
7:50 PM72 °FPassing clouds.14 mph65%29.95 "HgN/A
7:20 PM72 °FPassing clouds.15 mph61%29.95 "HgN/A
6:50 PM73 °FPassing clouds.14 mph61%29.95 "HgN/A
6:20 PM73 °FPassing clouds.15 mph61%29.95 "HgN/A
5:50 PM73 °FPassing clouds.17 mph61%29.95 "HgN/A
5:20 PM73 °FPassing clouds.17 mph65%29.95 "HgN/A
4:50 PM73 °FPassing clouds.20 mph61%29.98 "HgN/A
4:20 PM75 °FPassing clouds.16 mph61%29.98 "HgN/A
3:50 PM73 °FPassing clouds.16 mph69%29.98 "HgN/A
3:20 PM73 °FPassing clouds.17 mph65%29.98 "HgN/A
2:50 PM73 °FScattered clouds.16 mph69%29.98 "HgN/A
2:20 PM72 °FBroken clouds.16 mph69%29.98 "HgN/A
1:50 PM72 °FBroken clouds.16 mph73%29.98 "HgN/A
1:20 PM70 °FBroken clouds.12 mph78%30.01 "HgN/A
12:50 PM70 °FBroken clouds.12 mph78%29.98 "HgN/A
12:20 PM68 °FBroken clouds.14 mph83%30.01 "HgN/A
11:50 AM68 °FBroken clouds.10 mph83%30.01 "HgN/A
11:20 AM66 °FBroken clouds.9 mph88%30.01 "HgN/A
10:50 AM66 °FBroken clouds.13 mph88%30.01 "HgN/A
10:20 AM66 °FPartly sunny.10 mph88%30.01 "HgN/A
9:50 AM64 °FPartly sunny.9 mph94%30.01 "HgN/A
9:20 AM64 °FBroken clouds.7 mph88%30.01 "HgN/A
8:50 AM64 °FBroken clouds.7 mph88%30.01 "HgN/A
8:20 AM63 °FBroken clouds.5 mph94%30.01 "HgN/A
7:50 AM63 °FPartly sunny.6 mph94%30.01 "HgN/A
7:20 AM61 °FBroken clouds.7 mph100%30.01 "HgN/A
6:50 AM61 °FPartly cloudy.6 mph94%30.01 "HgN/A
6:20 AM61 °FPartly cloudy.3 mph94%30.01 "HgN/A
5:50 AM61 °FPartly cloudy.7 mph94%30.01 "HgN/A
5:20 AM61 °FPassing clouds.6 mph100%30.01 "HgN/A
4:50 AM61 °FPartly cloudy.5 mph100%30.01 "HgN/A
4:20 AM61 °FPassing clouds.5 mph100%30.01 "HgN/A
3:50 AM61 °FPassing clouds.6 mph94%30.01 "HgN/A
3:20 AM61 °FLow clouds.2 mph100%30.01 "Hg6 mi
2:50 AM61 °FPassing clouds.6 mph100%30.01 "Hg6 mi
2:20 AM63 °FPassing clouds.6 mph94%30.01 "HgN/A
1:50 AM63 °FPartly cloudy.3 mph94%30.04 "HgN/A
1:20 AM63 °FPassing clouds.5 mph100%30.04 "HgN/A
12:50 AM63 °FPassing clouds.6 mph100%30.04 "HgN/A
12:20 AM64 °FPassing clouds.7 mph94%30.04 "HgN/A
11:50 PM
Thu, Jul 28
63 °FPassing clouds.6 mph100%30.01 "HgN/A
11:20 PM63 °FPartly cloudy.5 mph100%30.04 "HgN/A
Weather by CustomWeather, © 2016

See weather overviewHow to use our weather pages